Dewpoint
13 12 11 9 6 5 4 4 -4 -7 -7 -3 -3 -2 -2 -2 -1 0 1 2 3 3 4 4 3 1 -3 -5 -8 -9 2 3
12 11 9 7 6 4 3 3 -5 -7 -2 -2 -2 -2 -2 -1 -0 1 2 3 3 4 5 5 3 -1 -4 -7 -10 -4 0 1
11 10 8 7 8 7 3 -0 -6 -3 -2 -2 -1 -1 -0 2 3 1 2 3 4 5 5 5 4 -2 -5 -9 -6 -2 -2 -1
8 8 8 8 8 5 2 0 -2 -2 -2 -1 2 -0 6 3 1 2 4 4 5 5 5 5 3 -1 -5 -7 -7 -11 -7 -6
10 9 9 8 5 3 1 -3 -1 -2 -2 -2 -2 5 0 1 2 4 4 5 5 5 6 6 4 -3 -7 -11 -13 -8 -7 -8
9 8 6 4 1 2 2 2 -2 -1 -1 -2 -1 3 2 5 6 4 5 5 6 6 6 6 3 -4 -8 -11 -15 -12 -10 -8
7 6 2 1 4 7 6 0 -2 4 -1 -1 -1 -1 -1 1 4 5 6 6 6 6 6 5 1 -4 -6 -12 -16 -19 -17 -4
5 6 6 7 8 8 5 6 6 -2 -2 -2 -2 -1 0 4 6 6 6 6 6 6 6 5 -2 -4 -6 -14 -18 -17 -19 -9
7 7 7 8 7 6 6 -1 -2 4 -1 -2 1 4 6 7 7 7 7 7 7 7 6 5 -2 -4 -9 -13 -11 -17 -17 -16
8 7 8 8 8 5 7 3 -2 2 2 5 7 8 7 8 8 8 8 7 7 6 5 1 -2 -4 -6 -5 -5 -10 -18 -17
7 6 6 8 4 -0 -1 -0 0 7 9 9 8 8 8 7 7 8 8 7 7 6 5 -1 -1 -2 -3 -2 -3 -4 -7 -7
8 7 8 5 5 -0 -2 2 4 8 8 9 9 9 7 7 7 8 8 7 6 6 3 -1 -1 -0 -2 -1 -1 -2 -3 -4
9 9 9 10 9 4 6 6 7 7 9 8 8 6 7 7 8 8 8 6 6 6 1 -1 1 -1 0 -1 -1 -1 -1 -3
9 10 10 8 8 6 5 3 7 8 8 6 7 8 7 8 9 8 7 5 7 5 -1 1 1 -0 -0 -1 -1 -3 -2 -2
9 10 10 9 10 8 7 7 8 6 7 5 7 7 8 9 9 8 7 7 6 1 -0 0 2 1 -1 -2 -2 -2 -4 -5
9 10 10 10 9 9 8 6 6 7 7 6 7 7 8 9 7 7 7 6 4 0 0 1 0 -0 -1 1 -1 -3 -5 -6
10 10 10 10 10 10 9 7 6 8 9 7 8 8 9 8 7 7 7 6 2 -0 0 -0 -0 -0 -0 -2 -2 -3 -4 -5
8 8 10 10 9 8 9 10 9 9 7 7 8 9 9 8 7 7 6 3 1 0 0 0 -0 2 3 2 -8 -7 -8 -8
9 8 10 9 9 8 8 9 9 7 6 7 8 9 9 8 7 6 5 2 1 0 0 -0 1 2 2 -12 -8 -6 -7 -7
8 6 8 10 8 7 8 8 7 6 5 7 8 9 10 8 8 6 4 3 1 0 -0 0 2 2 -2 -4 -9 -6 -5 -6
Wind_Speed
37 42 41 32 31 28 22 26 31 32 33 34 32 31 29 26 24 22 20 19 16 14 11 10 11 12 13 12 13 13 11 10
30 27 33 23 24 25 18 22 30 31 32 31 30 28 25 23 21 19 18 16 14 11 9 10 11 12 10 10 11 14 9 9
34 35 33 31 23 24 30 27 29 29 28 26 26 24 22 20 17 16 14 13 11 10 9 10 9 10 10 10 12 8 7 7
31 32 26 27 21 37 33 30 31 29 27 27 24 23 18 18 17 14 13 11 9 7 8 7 8 7 9 9 7 8 7 6
29 29 28 31 41 38 37 34 28 29 29 27 25 21 19 18 17 15 12 9 8 6 5 4 5 6 8 8 9 7 5 5
31 31 36 38 45 39 34 28 35 28 31 29 25 20 19 17 15 14 13 11 6 3 1 2 5 7 8 9 8 6 5 4
28 30 37 35 34 29 32 31 32 28 30 26 23 20 19 18 17 15 13 9 6 4 1 3 5 7 8 8 8 7 7 4
37 35 31 27 21 23 25 23 23 28 26 25 22 19 17 17 16 14 10 10 8 4 2 3 3 6 7 7 6 7 6 5
29 24 21 18 18 20 19 23 25 22 23 22 20 18 16 16 16 14 13 11 6 5 5 5 5 4 4 6 7 7 4 2
26 22 20 16 15 17 17 21 25 21 22 22 20 18 19 18 17 17 13 13 10 8 6 5 3 1 2 2 5 5 5 5
22 22 20 17 18 19 20 22 23 18 18 20 22 21 20 20 18 16 16 15 11 11 10 6 3 2 2 3 6 4 5 3
22 22 20 21 20 21 19 23 23 21 22 20 22 21 20 18 20 17 18 17 15 13 12 8 5 5 4 5 5 5 6 6
25 24 21 18 19 21 20 21 22 22 22 25 23 21 22 21 20 18 19 19 18 15 13 9 7 8 5 6 7 6 7 8
26 24 23 23 20 21 21 23 22 21 24 26 24 25 24 22 19 20 21 19 19 18 14 10 8 9 4 6 6 7 6 10
27 25 23 23 21 19 19 18 19 23 22 27 27 27 24 20 21 22 23 22 19 19 16 13 7 7 6 3 7 10 13 10
27 26 25 25 25 21 22 21 20 19 21 28 28 27 24 24 23 26 25 23 19 21 18 14 12 9 8 10 11 10 8 10
26 26 26 25 25 26 24 23 18 18 22 27 27 27 26 26 27 27 27 27 25 24 23 19 18 12 7 6 9 11 11 12
29 28 27 26 27 29 30 24 22 23 25 26 27 28 25 26 30 29 28 28 29 27 28 25 23 15 15 16 11 11 12 12
30 30 30 29 31 30 31 30 29 24 27 29 31 31 30 30 32 30 30 31 29 32 27 25 20 20 20 9 13 11 11 11
32 33 31 29 31 31 31 30 25 22 20 31 33 33 32 32 30 31 30 32 33 30 28 22 22 18 15 13 13 10 11 11
Wind_Direction
164 162 156 147 138 136 145 148 152 150 151 149 143 141 141 140 139 136 135 133 126 113 96 94 83 67 54 48 47 59 66 69
165 167 163 124 124 125 137 155 157 156 150 146 143 143 141 141 140 140 138 132 125 112 108 88 66 53 48 47 43 53 65 59
146 148 159 161 161 165 159 164 159 151 150 148 146 144 145 137 147 141 141 141 134 124 100 72 49 43 41 40 56 62 54 64
153 157 157 157 159 157 155 156 157 151 159 161 154 151 142 151 146 148 148 142 133 116 85 59 51 49 31 37 42 34 43 49
167 162 160 158 149 155 155 160 155 172 168 170 168 161 161 157 156 161 155 157 152 113 81 36 25 22 11 16 16 26 26 25
160 159 156 159 153 158 156 162 165 171 179 182 175 167 166 161 164 167 170 163 159 149 193 6 14 6 0 4 8 23 6 13
155 158 152 151 155 155 161 172 177 181 182 182 181 182 179 179 176 176 176 171 184 208 289 2 359 351 347 354 356 350 355 48
151 151 155 158 163 168 173 174 184 185 185 187 190 191 190 190 188 190 192 201 211 219 284 316 324 324 338 347 346 347 350 69
153 157 161 171 175 172 174 184 186 187 191 194 194 196 198 204 202 207 211 217 227 244 255 272 297 317 317 342 343 339 348 24
167 173 174 171 179 182 182 194 192 193 196 198 201 206 211 215 219 219 218 221 229 232 246 248 237 170 313 323 334 346 343 326
176 179 179 187 197 196 198 203 200 197 200 208 214 220 225 228 228 227 219 220 222 235 231 223 219 207 241 275 323 320 311 269
185 187 193 199 208 210 210 211 208 206 210 216 225 233 230 232 230 222 219 221 221 230 228 235 207 224 277 295 294 286 265 239
194 198 205 206 209 209 207 209 211 214 215 224 231 240 236 230 226 218 221 217 223 237 231 236 223 263 290 304 288 272 266 245
203 206 208 212 214 214 218 218 218 218 224 229 237 243 241 230 221 225 223 219 230 229 223 211 229 270 266 303 315 294 293 264
211 212 211 212 210 211 213 213 221 221 228 234 240 246 246 229 229 230 230 231 229 225 226 237 226 243 264 296 316 305 300 271
212 215 215 217 216 214 216 216 223 230 235 243 246 248 234 228 230 232 232 230 219 229 237 230 223 222 269 308 295 284 289 293
215 214 216 218 218 218 226 229 229 229 232 240 247 249 239 231 229 232 232 231 232 232 236 235 240 246 281 283 272 280 278 274
223 221 221 220 227 231 231 226 220 226 245 251 256 255 246 243 238 234 233 230 235 236 239 242 239 258 285 289 274 271 271 272
219 221 221 223 228 232 235 233 235 249 259 258 259 257 251 250 240 234 232 233 236 234 240 241 254 268 275 269 278 257 263 269
219 225 224 222 230 235 235 240 237 249 249 262 259 258 257 249 244 236 232 234 235 242 236 249 256 272 274 272 260 253 256 265
Height
1514 1515 1519 1531 1537 1545 1553 1555 1557 1558 1559 1562 1564 1568 1571 1574 1577 1579 1580 1583 1584 1585 1587 1588 1587 1586 1584 1586 1586 1585 1588 1587
1517 1516 1525 1532 1540 1546 1555 1561 1560 1561 1564 1567 1568 1571 1574 1577 1579 1580 1583 1584 1585 1586 1589 1589 1587 1587 1587 1587 1586 1586 1589 1589
1516 1519 1525 1528 1534 1539 1552 1558 1561 1564 1569 1573 1572 1574 1577 1579 1581 1582 1584 1586 1587 1587 1588 1589 1589 1588 1588 1587 1587 1588 1591 1589
1519 1523 1526 1529 1533 1542 1553 1559 1563 1565 1570 1573 1573 1576 1579 1578 1582 1585 1585 1585 1586 1588 1588 1590 1590 1590 1589 1588 1589 1587 1588 1588
1520 1525 1529 1534 1538 1546 1550 1557 1561 1567 1571 1573 1574 1576 1578 1579 1582 1583 1584 1586 1587 1587 1588 1590 1590 1590 1590 1587 1587 1589 1587 1587
1525 1529 1532 1536 1542 1548 1554 1557 1562 1569 1571 1573 1575 1577 1579 1581 1584 1584 1585 1585 1588 1589 1588 1589 1589 1590 1589 1586 1587 1585 1587 1584
1528 1533 1537 1543 1548 1553 1558 1561 1564 1568 1569 1573 1574 1577 1578 1580 1582 1584 1586 1584 1586 1589 1588 1587 1588 1589 1588 1587 1585 1585 1583 1582
1530 1536 1543 1547 1552 1554 1557 1561 1565 1567 1570 1572 1574 1576 1578 1580 1581 1583 1583 1584 1585 1586 1586 1586 1587 1588 1586 1586 1585 1584 1582 1580
1536 1542 1546 1549 1553 1555 1558 1561 1564 1567 1569 1571 1573 1575 1578 1579 1580 1581 1582 1583 1583 1583 1585 1586 1587 1586 1586 1584 1585 1583 1581 1579
1539 1543 1545 1548 1553 1555 1559 1561 1564 1566 1569 1570 1572 1574 1576 1576 1578 1580 1578 1580 1581 1583 1584 1585 1586 1584 1585 1584 1584 1581 1578 1578
1539 1542 1545 1550 1553 1555 1557 1559 1562 1565 1567 1570 1571 1572 1573 1574 1575 1576 1576 1578 1579 1581 1582 1584 1583 1584 1583 1584 1581 1579 1576 1576
1540 1542 1546 1548 1550 1552 1554 1559 1562 1563 1564 1566 1567 1569 1570 1570 1572 1573 1575 1575 1577 1579 1578 1580 1581 1582 1580 1580 1578 1576 1575 1574
1535 1538 1541 1545 1547 1549 1554 1555 1558 1558 1560 1563 1563 1565 1567 1567 1569 1569 1572 1573 1575 1573 1575 1577 1577 1577 1578 1577 1574 1571 1571 1572
1531 1534 1538 1540 1542 1545 1549 1551 1554 1557 1558 1557 1559 1562 1563 1563 1564 1566 1567 1570 1569 1570 1572 1573 1574 1574 1576 1575 1573 1572 1569 1569
1528 1531 1534 1536 1541 1544 1546 1548 1549 1550 1551 1552 1555 1557 1559 1559 1560 1562 1565 1565 1566 1567 1568 1569 1571 1570 1571 1573 1571 1568 1567 1563
1524 1528 1531 1533 1535 1538 1539 1543 1544 1545 1547 1548 1551 1554 1554 1554 1555 1558 1559 1561 1561 1562 1564 1565 1567 1568 1566 1566 1566 1566 1564 1561
1518 1522 1525 1528 1530 1533 1534 1536 1540 1543 1543 1546 1548 1547 1547 1549 1550 1552 1553 1555 1556 1557 1558 1559 1560 1562 1562 1561 1562 1561 1559 1558
1511 1515 1518 1522 1523 1526 1528 1532 1536 1536 1538 1541 1541 1542 1542 1543 1545 1546 1549 1551 1551 1552 1552 1552 1554 1555 1556 1556 1557 1558 1556 1554
1505 1509 1512 1515 1517 1520 1522 1526 1530 1531 1532 1533 1535 1536 1536 1537 1537 1540 1542 1545 1546 1546 1547 1549 1551 1548 1549 1551 1551 1551 1551 1549
1498 1501 1505 1509 1510 1513 1517 1521 1524 1525 1525 1525 1528 1529 1531 1530 1532 1535 1537 1539 1540 1542 1541 1545 1546 1544 1545 1545 1545 1546 1545 1544